Location: Clyde
(45.1830°S, 169.3170°E)
Time: 09:55:56
(UTC+12:00)

CZ-2C R/B - Pass Details

Date: 14 May 2021
Orbit: 785 x 869 km, 98.2° (Epoch: 15 June)

Event Time Altitude Azimuth Distance (km) Brightness Sun altitude
Rises 18:00:10 0° 33° (NNE) 3,454 5.8 -6.6°
Reaches altitude 10° 18:02:37 10° 38° (NE) 2,524 5.0 -7.0°
Maximum altitude 18:08:01 49° 111° (ESE) 1,122 3.0 -7.9°
Drops below altitude 10° 18:13:25 10° 183° (S) 2,530 5.0 -8.8°
Sets 18:15:52 0° 188° (S) 3,464 5.8 -9.2°
